User: anonymous   Login
Location: Boullarre
(49.1305°N, 3.0047°E)
Time: 21:10:09
(UTC+00:00)
Language:

FENGYUN 1C DEB - Orbit

View from above orbital plane
View from above orbital plane
View from above satellite
View from above satellite

Ground track
Ground track

The orbit data is extracted from the following two-line orbital elements,

1 29784U 99025CA  24058.19517881  .00001610  00000-0  65955-3 0  9995
2 29784  98.9763 313.4316 0063187  38.1973 123.8390 14.27523730890132
Epoch (UTC): 27 February 2024 04:41:03
Eccentricity: 0.0063187
inclination: 98.9763°
perigee height: 754 km
apogee height: 845 km
right ascension of ascending node: 313.4316°
argument of perigee: 38.1973°
revolutions per day: 14.27523730
mean anomaly at epoch: 123.8390°
orbit number at epoch: 89013

The dashed part of the orbit path shows where the satellite is in the earth's shadow,  

DLR